Location: Fr�ch�de
(43.3656°N, 0.2562°E)
Time: 06:27:48
(UTC+00:00)

Daily predictions for brighter satellites

Satellite Brightness Start Highest point End
(mag) Time Altitude Azimuth Time Altitude Azimuth Time Altitude Azimuth
NOAA 6 4.0 16:49:33 10° SSE 16:54:41 75° ENE 16:59:51 10° N
USA 215 3.7 16:49:19 10° ENE 16:55:36 47° SE 17:01:51 10° SSW
Cosmos 1743 Rocket 3.7 16:51:53 10° N 16:56:19 58° E 17:00:42 10° SSE
COSMO-SKYMED 1 4.3 16:54:35 10° ENE 16:56:50 14° E 16:59:03 10° ESE
ATLAS 5 CENTAUR R/B 3.7 16:51:32 10° NW 16:57:10 49° WSW 17:03:38 10° SSE
PAYLOAD B 4.2 16:52:02 10° SSE 16:57:36 73° ENE 17:03:11 10° N
Cosmos 2298 Rocket 4.1 16:52:36 10° NNW 16:57:51 58° ENE 17:03:05 10° SE
PSLV R/B 4.0 16:53:53 10° SSE 16:57:59 85° WSW 17:02:07 10° NNW
Cosmos 2150 Rocket 4.1 16:54:10 10° NNW 16:59:15 55° ENE 17:04:17 10° SE
Cosmos 1818 3.8 16:54:57 10° NNW 17:00:17 49° NE 17:05:33 10° SE
Cosmos 1408 Rocket 4.2 16:57:37 10° NNW 17:01:58 62° W 17:06:14 10° S
Cosmos 1606 3.9 17:00:15 10° SE 17:03:21 23° E 17:06:29 10° NE
CZ-4B DEB 4.4 16:58:12 10° SSE 17:03:42 84° WSW 17:09:13 10° NNW
Sich 1 3.9 17:01:34 10° NNE 17:05:21 27° ENE 17:09:05 10° SE
BREEZE-M TANK 3.2 16:58:08 10° WNW 17:05:32 73° SSW 17:08:52 10° ESE
Cosmos 1842 Rocket 3.9 17:03:11 10° SSW 17:07:29 68° W 17:11:48 10° N
Cosmos 2333 Rocket 3.2 17:02:09 10° SW 17:07:38 47° WNW 17:13:07 10° NNE
Okean O Rocket 1.8 17:03:39 10° SSE 17:07:50 50° ENE 17:12:05 10° N
ISS -3.8 17:07:00 10° SW 17:10:22 89° SSE 17:13:33 11° ENE
Radarsat Rocket 4.1 17:04:30 10° SSE 17:10:26 85° ENE 17:16:58 10° NNW
Nadezhda 1 Rocket 4.0 17:04:28 10° S 17:10:43 70° E 17:17:06 10° NNE
COSMOS 2428 3.4 17:07:29 10° SW 17:13:05 55° WNW 17:18:44 10° NNE
Cosmos 1125 Rocket 3.6 17:08:57 10° NNW 17:14:03 52° ENE 17:19:07 10° SE
Cosmos 1805 Rocket 3.8 17:12:04 10° N 17:16:24 47° ENE 17:20:40 10° SSE
CZ-4B R/B 2.0 17:17:44 10° NNE 17:20:31 31° E 17:23:18 10° SSE
Cosmos 1151 Rocket 4.4 17:17:42 10° SE 17:20:41 19° E 17:23:25 11° NE
Cosmos 2278 Rocket 2.2 17:15:31 10° NNW 17:21:14 84° ENE 17:26:55 10° SSE
Cosmos 1666 Rocket 4.5 17:18:45 10° NNE 17:22:30 27° ENE 17:26:15 10° SE
Cosmos 2154 Rocket 4.0 17:19:27 10° N 17:25:50 86° E 17:32:11 10° S
CRYOSAT 2 4.3 17:21:32 10° N 17:26:26 73° E 17:31:18 10° S
Cosmos 1862 3.5 17:22:26 10° NNW 17:26:29 77° W 17:30:29 10° S
Lacrosse 5 rocket 2.9 17:24:44 10° SSE 17:26:54 15° ESE 17:28:08 13° E
USA 267 3.7 17:22:01 10° E 17:28:03 43° NNE 17:34:07 10° NW
NOSS 0 Rocket 4.1 17:26:43 10° SSW 17:32:57 76° WNW 17:39:14 10° NNE
ERS-2 2.4 17:30:22 10° NNE 17:33:55 45° E 17:37:26 10° S
NOAA 12 4.2 17:28:55 10° SSE 17:34:15 84° WSW 17:39:37 10° NNW
Cosmos 2341 Rocket 4.1 17:28:36 10° N 17:34:46 55° ENE 17:40:56 10° SSE
CZ-2D R/B 4.2 17:31:45 10° SE 17:34:53 25° ENE 17:38:01 10° NNE
SL-24 R/B - RUBIN 2 4.2 17:28:59 10° NNW 17:35:19 84° NE 17:40:53 10° SE
CZ-4 R/B 2.6 17:38:23 20° ENE 17:38:23 20° ENE 17:41:09 10° NNE
Cosmos 2219 Rocket 3.8 17:33:48 10° WSW 17:38:46 31° NW 17:43:45 10° N
TELKOM 3 3.0 17:37:50 10° WSW 17:40:36 76° NNW 17:41:32 33° NE
Envisat 4.4 17:36:31 10° SSW 17:41:18 42° W 17:46:08 10° NNW
SMAP 3.5 17:36:57 10° S 17:41:34 65° W 17:46:12 10° NNW
CZ-3B R/B 3.4 17:40:10 10° S 17:41:44 12° SE 17:42:22 12° SE
H-2A R/B 3.1 17:38:15 10° N 17:42:14 46° WNW 17:46:16 10° SW
BREEZE-M DEB (TANK) 1.5 17:39:46 10° WSW 17:42:34 89° SE 17:43:13 37° ENE
CZ-4B R/B 3.6 17:37:28 10° S 17:42:48 66° WSW 17:48:06 10° NNW
SKYMED 2 3.9 17:41:07 10° NNE 17:45:16 43° E 17:49:24 10° S
USA 81 4.3 17:41:22 10° N 17:46:25 43° E 17:51:25 10° SSE
CREW DRAGON DEMO-1 DEB 3.9 17:44:46 10° NW 17:47:23 26° NNE 17:47:43 26° NNE
Cosmos 2237 Rocket 2.4 17:42:21 10° SSW 17:47:57 73° WNW 17:53:37 10° NNE
GENESIS II 4.1 17:45:13 10° NNW 17:49:11 83° NE 17:53:04 10° SE
Cosmos 2285 Rocket 4.4 17:43:24 10° N 17:49:25 40° ENE 17:55:21 10° SE
NOAA 11 4.1 17:44:09 10° SSE 17:49:34 88° ENE 17:55:02 10° NNW
Cosmos 1939 Rocket 2.8 17:46:42 10° SSE 17:50:27 53° ENE 17:54:15 10° N
FengYun 1-2 T 4.3 17:46:10 10° SSE 17:51:44 84° WSW 17:57:17 10° NNW
Cosmos 1633 Rocket 3.3 17:49:07 10° N 17:53:20 45° ENE 17:57:30 10° SSE
H-2A R/B 3.0 17:52:26 23° E 17:53:44 25° ENE 17:57:56 10° NNE
SL-8 Rocket 3.9 17:52:46 10° N 17:58:58 64° E 18:05:10 10° SSE
USA 281 3.3 17:55:24 10° SE 18:01:44 54° ENE 18:08:06 10° NNW
Cosmos 2369 Rocket 3.5 17:58:14 10° N 18:02:09 21° NE 18:02:09 21° NE
Cosmos 2181 Rocket 4.0 17:57:31 10° S 18:03:52 69° E 18:10:15 10° NNE
MOS 1 Rocket 4.1 18:03:47 22° NE 18:06:41 38° E 18:11:41 10° SSE
Abrixas rocket 3.5 18:04:42 10° W 18:07:11 30° SW 18:08:24 20° S
Cosmos 1959 Rocket 4.5 18:01:45 10° N 18:08:04 61° E 18:14:20 10° SSE
Cosmos 389 Rocket 3.9 18:16:56 10° SW 18:20:08 36° WNW 18:23:14 11° N
YAOGAN 1 2.7 18:21:23 48° NE 18:21:23 48° NE 18:25:11 10° N
Cosmos 1689 Rocket 3.2 18:25:21 37° SSW 18:25:21 37° SSW 18:27:15 10° SSW
Cosmos 1933 3.7 18:22:34 10° SSW 18:26:33 63° W 18:29:41 16° N
SL-08 R/B 4.5 18:21:40 10° N 18:27:41 53° ENE 18:33:37 10° SSE
Cosmos 2297 3.6 18:22:44 10° NNW 18:28:27 79° ENE 18:34:09 10° SSE
Cosmos 1470 Rocket 4.2 18:24:28 10° N 18:35:05 - SSE 18:27:23 39° NNE
Cosmos 1943 Rocket 2.3 18:26:02 10° NNW 18:31:25 49° ENE 18:31:42 49° ENE
Cosmos 44 3.4 18:26:20 10° NNW 18:31:36 63° NE 18:32:40 51° ESE
Meteor 1-14 Rocket 4.3 18:26:14 10° N 18:32:06 57° ENE 18:37:58 10° SSE
Okean-O 2.5 18:28:26 10° SSE 18:32:51 82° ENE 18:37:18 10° NNW
COSMO-SKYMED 1 3.1 18:29:20 12° N 18:33:20 57° WNW 18:37:34 10° SSW
NOAA 15 4.4 18:28:34 10° SSE 18:33:50 73° ENE 18:39:08 10° N
CZ-2C R/B 2.8 18:29:48 10° SSE 18:35:00 81° ENE 18:39:58 10° N
Cosmos 1867 3.9 18:29:59 10° SW 18:35:22 64° NW 18:37:58 31° NNE
Cosmos 1515 Rocket 4.3 18:31:11 10° S 18:34:01 38° SSE 18:34:01 38° SSE
SL-16 R/B 2.2 18:30:08 10° SSW 18:35:48 82° WNW 18:38:48 29° NNE
ARGOS 4.3 18:38:30 28° NNE 18:38:30 28° NNE 18:41:17 10° N
PSLV R/B 4.1 18:36:54 42° N 18:38:07 70° WNW 18:42:08 10° SSW
USA 215 3.6 18:35:13 28° NE 18:38:42 58° NNW 18:45:04 10° WSW
Meteor 1-26 Rocket 4.3 18:35:03 10° S 18:41:03 86° W 18:47:08 10° N
SL-23 DEB 4.3 18:37:23 10° SW 18:41:11 61° SE 18:41:11 61° SE
Helios 1A Rocket 3.0 18:40:14 10° S 18:44:15 73° WSW 18:48:17 10° NNW
Cosmos 1782 3.7 18:40:39 10° S 18:43:15 41° SSW 18:43:15 41° SSW
Cosmos 2218 Rocket 4.2 18:38:40 10° NNW 18:44:47 70° W 18:50:52 10° S
Cosmos 1538 Rocket 4.4 18:39:49 10° S 18:43:58 47° SE 18:43:58 47° SE
ISS -1.5 18:44:39 10° WNW 18:46:31 21° NW 18:46:31 21° NW
CZ-4B R/B 4.4 18:51:09 10° NW 18:52:28 12° WNW 18:53:49 10° W
Cosmos 2366 rocket 4.4 18:49:39 10° NNW 18:55:44 60° W 19:01:45 10° S
Cosmos 1151 Rocket 4.4 18:53:56 10° SW 18:57:56 37° WNW 19:00:18 21° NNW
Lacrosse 5 rocket 3.1 19:02:03 10° WSW 19:03:47 26° WSW 19:03:47 26° WSW
USA 267 3.3 19:09:08 52° SSE 19:10:48 74° SW 19:17:21 10° NW
CZ-4 R/B 3.3 19:14:25 26° WNW 19:14:25 26° WNW 19:16:40 10° NNW
CSL-04 Debris 4.4 19:17:53 69° W 19:17:53 69° W 19:23:20 10° NNW
ATLAS CENTAUR R/B 4.1 19:05:42 10° NW 19:24:48 77° SW 19:27:27 50° SSE
H-2A R/B 3.0 19:33:04 46° W 19:33:04 46° W 19:37:56 10° NNW
Cosmos 2369 Rocket 3.8 19:41:27 10° NNW 19:43:59 27° NW 19:43:59 27° NW
Cosmos 1943 Rocket 4.3 20:10:26 10° NW 20:13:17 22° WNW 20:13:17 22° WNW
